STARLINK-3903, 52462

Orbit data source: Space-Track

STARLINK-3903, 52462 is a payload satellite owned by SpaceX/Seattle (US) in LEO that was launched on Fri, 06 May 2022 UTC via an FALCON 9 launch vehicle from the Air Force Eastern Test Range (AFETR). Payload-class satellites include a variety of spacecraft equipped with specific instruments for various scientific and technological missions. These include communications satellites like Starlink; space stations such as the ISS; scientific satellites like the Hubble; Earth observation satellites from companies like Planet Labs, Umbra, and HawkEye 360; GPS; miniature CubeSats for education and research; and military/defense satellites.

Loading next visibility...
Identifier
52462, 2022-049M
Orbit
LEO
Country
Flag of USUS
Related business
Manufacturer
SpaceX/Seattle
Mission
Operational Commercial Communications
Bus & Motor
STARLINK, Unknown motor
Mass
297 kg wet, ~220 kg dry
Launch date (UTC)
2022-05-06 (4 years ago)
Launch vehicle
FALCON 9
Launch site
Air Force Eastern Test Range (AFETR)
Object type
Payload
Rocket body
Debris
Shape & HBR
Box + 1 Pan, 10.1 m
Radar Cross Section
13.562 m², Large (>1 m²)

Expand to show TLE details & history
Last TLE update: 16 hours ago

TLE from 16 hours ago
0 STARLINK-3903
1 52462U 22049M   25346.69644087  .00011687  00000-0  75189-3 0  9996
2 52462  53.2186  89.6591 0001956  94.2697 265.8519 15.08803876199115
Epoch: 2025-12-12T16:42Z
TLE epoch observation values (Epoch: 2025-12-12T16:42:52.491Z)
Latitude
0.00002°
Longitude
117.30604°
Altitude
540.85 km
Speed
7.593 km/s
True Right ascension
05h 58m 38s
True Declination
0° 00' 00"
Sunlit
Object was in full shadow at epoch
Visualization orbit readout
Latitude
Unknown
Longitude
Unknown
Altitude
Unknown
Speed
Unknown
Apparent Right ascension
Unknown
Apparent Declination
Unknown
Sunlit
N/A
Visualization observer readout
Local Sidereal Time
07:26:12
Azimuth
Unknown
Elevation
Unknown
Doppler factor
Unknown
Orbital elements
Apogee altitude
541.452 km
Perigee altitude
538.745 km
Semi-major axis
6,918.236 km
Eccentricity
0.0002
Inclination
53.2186°
RAAN
89.6591°
Arg. of periapsis
94.2697°
True anomaly
265.82955°
Mean anomaly
265.8519°
Eccentric anomaly
265.84072°
Mean motion
3.77181 °/min
Orbital period
95.44 mins
BSTAR
0.00075189
Loading maneuver chart data...
Computing Atmospheric mass density...
Loading historical data...
Loading historical data...
Loading historical data...
Loading historical data...
Loading historical data...
Loading historical data...
Loading historical data...

Documentation

Showing up to 5 results
|